Location: Melbourne
(37.8120°S, 144.9677°E)
Time: 08:54:13
(UTC+10:00)

ISS - Visible Passes

Search period start: 06 May 2021 00:00
Search period end: 16 May 2021 00:00
Orbit: 418 x 421 km, 51.6° (Epoch: 05 May)

Date Brightness Start Highest point End Pass type
(mag) Time Alt. Az. Time Alt. Az. Time Alt. Az.
06 May -1.9 17:54:44 10° SSW 17:57:04 17° SSE 17:59:25 10° ESE visible
06 May -2.0 19:30:49 10° SW 19:32:43 30° SW 19:32:43 30° SW visible
07 May -3.7 18:43:26 10° SW 18:46:50 57° SE 18:47:44 40° E visible
08 May -2.9 17:56:09 10° SW 17:59:20 34° SSE 18:02:29 10° E visible
08 May -1.6 19:33:13 10° WSW 19:36:02 24° NW 19:36:02 24° NW visible
09 May -2.5 18:45:27 10° WSW 18:48:42 42° NW 18:51:37 12° NNE visible
10 May -3.6 17:57:54 10° SW 18:01:20 80° NW 18:04:43 10° NE visible
11 May -0.6 18:48:35 10° W 18:50:19 13° NW 18:52:04 10° NNW visible
12 May -1.1 18:00:16 10° WSW 18:03:03 23° NW 18:05:50 10° N visible
